Temperature
15 16 16 16 16 17 17 17 17 17 17 17 17 17 17 17 17 17 17 17 17 17 17 17 16 16 16 16 16 16 16 16 16 15 15 15 15 15 15 15 14 14 14
16 16 16 16 16 16 17 17 17 17 17 17 17 17 17 17 17 17 17 17 17 17 17 17 16 16 16 16 16 16 16 16 15 15 15 15 15 14 14 14 14 14 14
16 16 16 16 16 16 16 17 17 17 17 17 17 17 17 17 17 17 17 17 17 17 16 16 16 16 16 16 16 16 16 15 15 15 15 15 15 14 14 14 14 14 14
16 16 16 16 16 16 16 16 17 17 17 17 17 17 17 17 17 17 17 17 17 16 16 16 16 16 16 16 16 16 15 15 15 15 15 15 14 14 14 14 14 14 14
16 16 16 16 16 16 16 16 16 16 17 17 17 17 17 17 17 16 16 16 16 16 16 16 16 16 16 16 16 15 15 15 15 15 15 14 14 14 14 14 14 14 13
16 16 16 15 16 16 16 16 16 16 16 16 16 16 16 16 16 16 16 16 16 16 16 16 16 16 16 16 15 15 15 15 15 14 14 14 14 14 14 14 14 13 13
15 15 15 15 15 15 15 15 15 15 15 16 16 16 16 16 16 16 16 16 16 16 16 16 16 16 16 16 15 15 15 14 14 14 14 14 14 14 14 13 13 13 13
15 15 15 15 15 15 15 15 15 15 15 15 15 15 15 15 16 16 16 16 16 16 15 15 15 15 15 15 15 15 15 14 14 14 14 14 14 14 14 13 13 13 13
14 14 14 14 14 14 14 14 14 14 14 14 15 15 15 15 15 15 15 15 15 15 15 15 15 15 15 15 15 15 14 14 14 14 14 13 13 13 13 13 13 13 13
13 13 13 13 13 14 14 14 14 14 14 14 14 14 14 14 14 14 15 15 15 15 15 15 15 15 15 15 14 14 14 14 14 14 13 13 13 13 13 13 13 13 13
13 13 13 13 13 13 13 13 13 13 13 13 13 14 14 14 14 14 14 14 14 14 14 14 14 14 14 14 14 14 14 14 13 13 13 13 13 13 13 13 13 13 12
13 13 12 12 12 12 12 13 13 13 13 13 13 13 13 13 13 13 14 14 14 14 14 14 14 14 14 14 14 14 14 13 13 13 13 13 13 13 13 13 13 12 12
12 12 12 12 12 12 12 12 12 12 12 12 12 12 12 13 13 13 13 13 13 13 13 13 13 13 13 13 13 13 13 13 13 13 13 13 13 13 13 13 13 12 12
12 12 12 12 12 12 12 12 12 12 12 12 12 12 12 12 12 13 13 13 13 13 13 13 13 13 13 13 13 13 13 13 13 13 13 13 13 13 13 12 12 12 12
12 12 11 11 11 11 11 11 11 11 11 11 11 11 11 11 12 12 12 12 12 12 12 12 12 12 12 12 12 12 12 12 12 12 12 13 13 13 12 12 12 12 12
11 11 11 11 11 11 10 10 10 11 10 10 10 11 11 11 11 11 11 11 11 11 11 11 11 12 12 12 12 12 12 12 12 12 12 12 12 12 12 12 12 12 12
11 11 11 11 10 10 10 10 10 10 10 10 10 10 10 10 10 10 10 11 11 11 11 11 11 11 11 11 11 11 11 11 12 12 12 12 12 12 12 12 12 12 11
10 10 10 10 10 10 10 10 10 9 9 9 9 9 9 9 10 10 10 10 10 10 10 10 10 10 11 11 11 11 11 11 11 11 11 11 11 11 12 12 12 12 11
10 10 10 10 10 10 9 9 9 9 9 9 9 9 9 9 9 9 9 9 10 10 10 10 10 10 10 10 10 10 10 10 11 11 11 11 11 11 11 11 11 11 11
10 9 9 9 9 9 9 9 9 9 9 8 8 8 8 8 8 9 9 9 9 9 9 9 9 9 9 9 9 9 10 10 10 10 10 11 11 11 11 11 11 11 11
9 9 9 9 9 9 8 8 8 8 8 8 8 8 8 8 8 8 8 8 9 9 9 9 9 9 9 9 8 8 9 9 10 10 10 10 10 10 10 10 11 10 11
9 9 9 9 9 8 8 8 8 7 7 7 8 8 8 8 8 8 8 8 8 8 8 8 8 8 8 8 8 7 7 8 9 9 9 9 10 10 10 10 10 10 10
9 9 8 8 8 8 8 7 7 7 7 7 7 7 7 7 7 7 7 8 8 8 8 8 8 8 7 8 8 7 7 7 8 8 9 9 9 9 10 10 10 10 10
8 8 8 8 8 8 7 7 7 7 7 7 7 7 7 7 7 7 7 7 7 8 8 8 8 8 8 7 7 7 7 7 7 7 8 8 9 9 9 9 9 9 9
8 8 8 8 8 7 7 7 7 7 6 6 6 7 7 7 7 7 7 7 7 7 7 7 7 7 7 7 7 7 7 7 7 7 7 8 8 9 9 9 9 9 9
8 8 8 8 7 7 7 7 7 6 6 6 6 6 6 6 6 7 7 7 7 7 7 7 7 7 7 7 7 7 7 7 7 7 7 7 7 8 8 9 9 9 9
Wind_Speed
2 2 4 7 8 8 8 8 8 8 8 8 8 8 8 7 7 7 8 8 8 7 8 8 9 9 10 11 11 11 11 11 12 12 12 12 12 12 12 11 10 10 11
2 1 5 6 8 8 9 8 7 7 7 7 7 7 7 7 6 6 7 7 7 7 7 8 9 9 9 10 10 10 11 11 11 11 11 11 11 11 11 10 10 10 12
2 3 5 6 7 7 8 8 7 6 6 6 6 6 6 5 5 5 6 7 7 7 7 7 8 8 8 9 10 10 10 10 11 11 10 8 9 10 10 11 10 11 12
4 4 5 6 6 6 6 6 6 5 5 5 5 4 4 4 4 4 5 6 6 6 6 7 8 8 8 9 9 10 10 11 11 10 7 6 7 9 10 10 10 10 11
4 5 5 6 6 6 5 5 5 5 4 4 3 3 3 3 3 3 4 4 5 5 6 6 7 7 8 9 9 10 9 9 10 9 7 6 6 9 9 10 10 10 10
4 5 6 6 6 5 5 4 4 4 4 3 2 2 2 2 3 3 3 3 4 5 6 6 7 7 8 8 9 9 9 9 9 8 7 6 7 9 9 10 10 10 10
3 5 6 7 6 5 5 4 3 3 3 3 2 1 1 1 2 2 2 3 3 4 5 6 7 7 8 8 8 8 9 9 9 8 7 7 8 9 10 10 10 10 10
4 4 6 7 7 6 5 5 4 2 2 2 2 1 1 1 1 2 3 3 3 3 4 6 6 7 7 7 7 7 8 9 9 8 8 8 9 10 10 10 10 10 10
5 4 5 5 5 5 5 5 4 4 2 1 1 2 2 1 1 2 3 3 2 3 3 5 5 6 7 7 6 6 7 8 8 7 8 8 10 11 10 10 11 11 10
4 3 3 4 4 3 3 3 4 4 4 3 2 2 2 2 2 2 3 3 3 3 3 4 5 5 6 6 5 5 6 7 7 7 7 9 11 12 11 11 11 11 11
3 2 2 2 4 4 3 3 4 3 3 3 3 2 2 1 1 2 3 4 4 4 3 3 4 5 5 5 5 5 5 5 6 6 7 10 12 12 12 12 12 12 12
1 2 1 2 2 3 3 3 3 2 3 3 2 2 1 1 1 3 3 4 5 5 4 4 4 5 3 3 3 3 3 5 5 6 7 10 11 12 12 12 13 13 12
2 1 1 1 1 2 2 2 2 2 2 3 2 2 1 1 1 1 1 2 4 4 3 3 3 3 3 2 2 2 3 5 5 6 8 10 11 12 12 12 13 14 13
2 2 2 1 1 1 1 1 1 1 2 2 3 3 1 1 1 2 2 2 2 2 2 2 2 2 3 3 3 3 3 4 5 6 8 11 12 12 13 13 13 14 14
3 3 2 2 2 2 1 2 2 2 2 3 2 3 3 2 3 3 2 2 3 3 3 3 3 3 3 3 3 3 3 4 5 6 7 11 12 13 14 14 14 14 15
3 3 3 3 3 2 2 3 3 3 3 3 3 4 5 4 3 3 3 3 4 4 4 4 4 4 4 4 4 4 4 4 5 6 6 8 11 13 14 15 14 14 15
4 4 3 3 3 3 4 4 3 3 3 3 4 4 5 5 5 4 4 4 5 5 5 4 4 3 3 3 4 4 4 4 5 6 7 6 8 10 12 14 14 15 15
4 4 4 4 3 4 4 4 3 3 3 3 4 4 6 6 6 4 5 5 5 5 4 4 4 4 4 4 3 4 3 4 5 6 6 7 6 7 10 13 14 15 15
4 4 4 4 4 4 4 4 4 3 4 4 4 4 6 6 6 5 5 5 5 5 5 5 4 5 4 4 3 3 3 4 5 5 5 7 8 8 7 10 13 14 15
4 4 4 4 4 4 3 3 3 4 4 4 4 5 6 6 6 5 5 6 5 5 5 5 5 4 5 4 3 3 3 4 4 5 6 6 7 8 8 8 9 10 14
3 3 4 4 4 3 2 2 3 4 4 4 4 6 7 7 7 6 6 5 6 6 7 6 4 5 4 3 1 1 3 3 4 4 4 4 6 7 8 8 8 7 8
4 4 4 4 4 4 4 4 4 4 4 5 4 5 7 7 7 6 6 6 6 6 7 6 5 4 4 4 3 2 1 3 3 4 4 5 6 5 6 8 8 8 8
5 5 5 5 5 5 4 3 3 3 3 3 4 4 5 6 7 6 7 6 6 7 7 7 7 6 5 4 4 3 2 3 3 3 4 4 5 5 5 6 8 8 9
6 5 5 5 5 5 4 3 4 4 5 5 5 5 5 6 6 7 7 6 7 6 7 8 7 6 7 6 4 3 3 3 2 3 3 3 4 5 6 6 6 8 9
5 4 4 4 5 4 4 4 4 5 5 4 4 5 6 5 5 6 6 6 6 6 7 7 7 7 6 6 4 2 2 2 2 3 4 4 3 4 5 6 6 6 8
4 3 4 4 5 5 4 4 4 5 5 5 5 5 4 4 4 5 5 5 5 5 6 7 7 8 7 6 5 3 3 3 3 3 4 5 5 4 5 5 5 5 6
Wind_Direction
293 308 72 72 72 78 80 82 85 84 88 100 103 106 108 111 115 121 129 134 137 140 146 148 143 143 138 134 133 129 128 127 127 125 122 121 120 119 116 113 111 106 109
188 75 81 77 74 79 79 77 80 86 86 91 102 105 110 115 121 128 137 142 145 148 150 152 151 147 140 140 138 134 133 130 128 127 124 125 125 125 124 121 120 117 115
107 76 78 77 76 79 79 75 75 83 85 86 93 105 109 118 126 132 145 152 154 154 155 157 157 150 145 146 145 143 141 136 134 133 128 122 125 129 128 124 122 121 118
97 78 71 68 71 73 77 76 74 78 83 84 82 97 112 118 126 137 146 154 158 159 157 156 157 153 153 152 152 152 149 144 143 140 129 127 132 136 135 132 128 125 123
84 71 68 64 61 63 70 78 76 74 76 80 83 85 110 125 130 136 143 152 159 163 164 162 159 160 162 161 159 157 155 154 152 145 134 138 141 144 143 140 136 133 129
79 64 64 61 57 57 60 66 75 75 67 64 79 88 91 125 138 149 150 159 166 167 164 165 164 166 167 168 170 167 163 159 153 143 142 150 154 156 155 151 146 142 137
88 60 60 56 55 54 50 48 60 73 64 50 47 58 75 105 148 158 166 163 167 170 168 168 167 171 176 177 178 178 174 168 158 151 153 160 165 166 165 162 157 153 148
101 63 55 54 51 48 44 36 34 46 55 46 31 360 333 12 165 180 181 177 166 168 171 173 175 177 180 182 184 181 178 175 169 166 167 173 177 177 174 171 166 162 159
76 69 45 43 46 47 40 28 23 19 9 5 9 335 315 313 298 221 198 195 189 178 179 177 179 186 188 187 186 184 181 178 166 170 179 181 184 185 183 179 175 171 169
63 66 50 35 32 21 13 11 10 7 1 344 333 329 322 296 292 273 229 213 207 195 184 182 184 189 197 196 194 190 178 170 170 176 182 189 192 194 191 185 181 179 177
35 28 41 32 15 4 358 349 354 342 342 345 334 313 320 304 270 268 250 230 217 209 202 199 198 195 196 198 197 195 176 165 172 180 189 198 201 202 199 193 188 188 187
354 351 18 12 6 7 351 348 338 328 327 329 332 307 311 302 275 272 258 230 225 217 215 220 211 195 187 189 193 190 173 172 176 187 198 204 207 210 210 202 197 195 195
216 276 308 304 349 6 350 342 340 333 321 315 307 294 288 276 266 278 250 225 214 209 199 213 202 187 180 186 189 186 186 182 188 198 204 206 212 216 216 210 204 201 200
218 243 260 269 298 299 324 309 304 314 313 299 283 277 261 261 257 248 234 216 192 190 198 197 195 198 196 201 198 196 201 198 200 204 210 210 216 220 221 217 213 211 208
238 246 249 250 259 272 282 278 283 259 267 264 265 267 246 243 241 246 241 223 209 195 199 206 205 203 207 213 212 208 219 218 213 211 215 215 218 222 225 223 219 218 215
244 251 248 245 244 248 259 261 260 263 262 258 251 252 245 229 232 232 235 229 218 207 203 208 212 205 209 211 219 218 221 221 218 216 219 218 220 224 229 229 227 226 224
238 247 248 250 243 246 257 258 265 264 260 254 253 246 246 236 225 226 226 231 226 213 206 210 214 205 212 217 225 222 215 219 218 214 214 214 219 223 229 234 234 234 232
229 247 256 271 265 256 259 258 259 262 256 254 255 247 245 242 227 224 223 231 231 215 203 205 205 202 209 211 223 230 224 222 222 218 215 214 216 223 229 236 240 240 237
229 246 261 263 255 257 263 265 264 256 254 258 254 249 245 241 233 227 229 230 229 217 210 214 208 196 202 213 225 235 230 231 232 224 222 220 219 221 226 235 240 242 243
235 244 256 262 259 262 273 279 278 269 258 256 254 250 245 239 235 235 234 226 223 218 213 211 209 203 196 202 227 249 246 241 235 222 225 223 221 224 228 233 234 241 244
248 255 260 262 271 277 280 267 267 267 260 255 252 252 248 243 238 237 241 227 220 219 213 209 201 200 195 176 174 295 304 264 240 231 225 225 229 228 226 228 227 232 241
249 255 263 257 263 266 255 248 246 255 255 254 254 256 251 246 239 243 232 230 223 220 212 206 192 195 198 177 166 175 288 302 268 246 226 224 232 225 228 230 228 230 232
257 254 263 258 260 262 254 269 282 276 270 267 265 258 254 251 242 238 237 229 229 218 211 204 199 193 197 193 181 183 195 231 284 265 246 238 229 228 230 227 226 228 232
253 255 258 258 257 257 249 256 262 265 266 266 263 260 261 255 251 241 236 229 228 224 214 205 203 197 188 195 203 220 217 205 231 281 284 258 251 241 235 237 230 229 231
248 253 261 263 266 258 248 245 253 266 266 265 263 264 260 256 249 247 235 227 226 225 219 210 201 200 195 197 202 218 233 246 223 241 275 282 279 259 243 235 232 229 231
258 259 265 268 275 264 255 252 249 260 271 273 273 268 263 259 253 245 237 226 227 227 218 213 206 203 203 201 201 207 211 219 222 226 260 272 275 279 270 249 236 231 232
Height
1509 1508 1509 1509 1509 1509 1509 1509 1510 1510 1511 1511 1512 1513 1513 1514 1514 1514 1515 1515 1515 1516 1516 1517 1517 1518 1519 1519 1519 1520 1520 1520 1520 1520 1520 1520 1521 1521 1521 1521 1521 1521 1521
1508 1508 1508 1508 1508 1509 1509 1509 1509 1510 1510 1511 1511 1512 1512 1513 1513 1514 1514 1514 1515 1515 1516 1516 1517 1518 1518 1518 1519 1519 1520 1520 1520 1520 1521 1521 1521 1521 1521 1521 1521 1521 1521
1507 1507 1507 1508 1508 1508 1508 1508 1509 1509 1509 1510 1511 1511 1512 1512 1512 1513 1513 1513 1514 1514 1515 1515 1516 1517 1517 1518 1518 1518 1519 1519 1520 1520 1520 1521 1521 1521 1521 1521 1521 1521 1521
1507 1507 1507 1507 1507 1507 1507 1507 1508 1508 1508 1509 1509 1510 1510 1511 1511 1511 1512 1512 1513 1513 1514 1514 1515 1516 1516 1517 1517 1518 1518 1519 1519 1520 1520 1520 1521 1521 1521 1521 1521 1521 1521
1506 1506 1506 1506 1506 1506 1506 1506 1506 1507 1507 1507 1508 1508 1509 1509 1509 1510 1510 1511 1511 1512 1512 1513 1514 1514 1515 1515 1516 1516 1517 1518 1518 1519 1519 1520 1520 1520 1520 1521 1521 1521 1521
1505 1505 1505 1505 1505 1505 1505 1505 1505 1505 1505 1505 1506 1506 1507 1507 1507 1508 1508 1509 1510 1510 1511 1511 1512 1512 1513 1514 1514 1515 1515 1516 1517 1517 1518 1518 1519 1519 1519 1520 1520 1520 1520
1504 1504 1504 1504 1503 1503 1503 1503 1503 1503 1503 1503 1504 1504 1504 1505 1505 1506 1506 1507 1507 1508 1508 1509 1510 1511 1511 1512 1512 1513 1514 1515 1515 1516 1516 1517 1518 1518 1518 1519 1519 1519 1519
1503 1503 1502 1502 1502 1501 1501 1501 1500 1500 1500 1500 1501 1501 1502 1502 1502 1503 1504 1504 1505 1506 1506 1507 1508 1509 1509 1510 1510 1511 1512 1513 1513 1514 1515 1516 1516 1517 1517 1517 1518 1518 1518
1502 1501 1501 1500 1500 1500 1499 1498 1498 1498 1498 1498 1498 1498 1499 1499 1499 1500 1500 1501 1502 1503 1504 1504 1505 1506 1507 1507 1508 1509 1510 1510 1511 1512 1513 1514 1515 1515 1516 1516 1516 1516 1517
1500 1500 1499 1499 1498 1497 1497 1496 1496 1495 1495 1495 1495 1495 1496 1496 1496 1496 1497 1498 1499 1500 1501 1501 1502 1503 1504 1505 1505 1506 1507 1508 1509 1510 1511 1512 1513 1513 1514 1514 1514 1515 1515
1499 1498 1498 1497 1496 1495 1494 1494 1493 1493 1493 1493 1493 1493 1493 1493 1493 1493 1494 1495 1496 1496 1497 1498 1499 1500 1501 1502 1503 1503 1504 1505 1506 1507 1508 1509 1510 1511 1512 1512 1512 1513 1513
1497 1496 1496 1495 1494 1493 1492 1491 1490 1490 1490 1490 1489 1490 1490 1490 1490 1490 1490 1491 1492 1493 1494 1495 1496 1497 1498 1498 1499 1500 1501 1502 1503 1504 1505 1507 1508 1508 1509 1510 1510 1511 1511
1495 1494 1494 1493 1492 1490 1489 1488 1487 1486 1486 1486 1486 1486 1486 1486 1486 1486 1487 1487 1488 1489 1490 1491 1492 1493 1494 1495 1496 1497 1498 1499 1500 1501 1502 1503 1505 1505 1506 1507 1507 1508 1508
1493 1492 1491 1490 1489 1488 1486 1485 1484 1483 1482 1482 1482 1482 1482 1482 1482 1482 1483 1483 1484 1485 1486 1487 1488 1489 1490 1491 1492 1493 1494 1495 1496 1497 1499 1500 1501 1502 1503 1503 1504 1504 1505
1490 1489 1488 1487 1486 1484 1483 1482 1480 1479 1478 1478 1478 1478 1478 1478 1478 1478 1479 1479 1480 1481 1481 1482 1484 1485 1486 1487 1488 1489 1491 1492 1493 1494 1495 1496 1497 1498 1499 1500 1500 1501 1501
1487 1486 1485 1483 1482 1481 1479 1478 1476 1475 1474 1474 1473 1473 1474 1474 1474 1474 1474 1475 1476 1476 1477 1478 1480 1480 1481 1483 1484 1485 1487 1488 1489 1490 1491 1492 1493 1494 1495 1496 1497 1497 1498
1483 1482 1481 1479 1478 1476 1475 1473 1472 1470 1470 1469 1468 1468 1469 1469 1469 1470 1470 1470 1471 1472 1473 1474 1475 1476 1477 1478 1480 1481 1482 1484 1485 1486 1487 1488 1489 1490 1491 1492 1493 1493 1494
1478 1477 1476 1475 1473 1471 1470 1468 1467 1465 1464 1464 1463 1463 1464 1464 1465 1465 1465 1466 1466 1467 1468 1469 1470 1471 1473 1474 1475 1476 1478 1479 1480 1481 1482 1483 1484 1485 1486 1487 1488 1489 1490
1474 1473 1471 1470 1468 1466 1465 1463 1462 1460 1459 1459 1458 1458 1458 1459 1459 1460 1460 1461 1462 1462 1463 1464 1466 1467 1468 1470 1471 1472 1473 1475 1476 1477 1477 1479 1480 1481 1482 1482 1483 1484 1485
1469 1468 1467 1465 1463 1462 1460 1458 1457 1455 1454 1453 1453 1453 1453 1453 1454 1455 1455 1456 1457 1458 1458 1460 1461 1462 1464 1465 1467 1468 1470 1471 1471 1472 1473 1474 1475 1476 1477 1478 1479 1479 1480
1465 1464 1462 1460 1459 1457 1455 1453 1451 1450 1449 1448 1448 1448 1448 1448 1449 1449 1450 1450 1451 1452 1453 1455 1456 1457 1459 1461 1463 1464 1465 1466 1467 1468 1468 1469 1470 1471 1472 1473 1474 1474 1475
1460 1459 1457 1456 1454 1453 1451 1449 1447 1445 1444 1443 1443 1443 1443 1443 1443 1443 1444 1444 1446 1447 1448 1450 1451 1452 1454 1457 1458 1460 1461 1462 1462 1463 1464 1464 1465 1466 1466 1468 1468 1469 1470
1455 1454 1453 1451 1450 1448 1446 1444 1442 1441 1439 1438 1437 1437 1437 1437 1437 1437 1438 1439 1440 1442 1443 1444 1447 1447 1449 1452 1455 1457 1457 1456 1457 1457 1458 1460 1460 1461 1461 1462 1463 1464 1465
1451 1450 1449 1447 1445 1443 1441 1439 1438 1436 1434 1433 1432 1432 1432 1432 1431 1432 1432 1434 1435 1437 1438 1439 1442 1444 1445 1446 1449 1452 1453 1453 1454 1452 1453 1454 1456 1456 1456 1457 1457 1458 1459
1446 1445 1444 1442 1440 1439 1437 1436 1434 1432 1430 1428 1428 1427 1427 1427 1427 1427 1427 1429 1430 1432 1433 1435 1437 1439 1440 1441 1444 1446 1448 1449 1450 1450 1448 1449 1450 1451 1451 1452 1452 1452 1453
1442 1441 1440 1438 1436 1434 1433 1431 1430 1428 1426 1424 1423 1422 1422 1422 1422 1422 1423 1424 1426 1427 1428 1430 1432 1434 1436 1437 1439 1442 1443 1444 1445 1446 1445 1445 1445 1445 1446 1446 1446 1447 1448